Flag for U.S.A. Weather past 2 weeks in Jackson, Mississippi, U.S.A.

Now
47 °F

Mostly cloudy.


Feels Like: 44 °F
Forecast: 41 / 53 °F
Wind: 6 mph from Northeast

Location: Hawkins Field

Current Time: Dec 18, 2014 at 11:31:43 AM

Latest Report: Dec 18, 2014 at 10:53 AM


Visibility: 10 mi

Pressure: 30.19 "Hg

Humidity: 83%

Dew point: 42 °F

Location of JacksonLocation

Historic Weather in Jackson — Graph

°F

Jackson temperature yesterday

Maximum temperature yesterday: 56 °F (at 2:53 PM)
Minimum temperature yesterday: 33 °F (at 6:53 AM)
Average temperature yesterday: 45 °F

Past Weeks' High & Low Weather Summary

 TemperatureHumidityPressure
High76 °F (Dec 4, 1:53 PM)97% (Dec 4, 7:02 AM)30.40 "Hg (Dec 4, 7:02 AM)
Low32 °F (Dec 11, 4:53 AM)28% (Dec 9, 1:53 PM)29.87 "Hg (Dec 15, 2:53 PM)
Average52 °F74%30.21 "Hg
* Reported Dec 3 9:53 AM — Dec 18 9:53 AM, Jackson, Weather by CustomWeather, © 2014

Note: Actual official high and low records may vary slightly from our data, if they occured in-between our weather recording intervals... More about our weather records

Advertising

Jackson weather history for previous 24 hours

 ConditionsComfort  
Time TempWeatherWind HumidityBarometerVisibility
9:53 AM
Dec 18
47 °FLight rain. Overcast.6 mph77%30.21 "Hg7 mi
8:53 AM47 °FOvercast.7 mph71%30.20 "Hg10 mi
7:53 AM46 °FMostly cloudy.6 mph73%30.18 "Hg10 mi
6:53 AM45 °FOvercast.9 mph76%30.16 "Hg10 mi
5:53 AM46 °FOvercast.6 mph73%30.19 "Hg10 mi
4:53 AM46 °FOvercast.6 mph73%30.17 "Hg10 mi
3:53 AM46 °FOvercast.7 mph77%30.18 "Hg10 mi
2:53 AM46 °FMostly cloudy.3 mph77%30.22 "Hg10 mi
1:53 AM46 °FOvercast.3 mph77%30.19 "Hg10 mi
12:53 AM45 °FMostly cloudy.3 mph80%30.20 "Hg10 mi
11:53 PM
Dec 17
44 °FClear.No wind79%30.19 "Hg10 mi
10:53 PM45 °FClear.No wind76%30.18 "Hg10 mi
9:53 PM46 °FClear.6 mph73%30.18 "Hg10 mi
8:53 PM48 °FClear.5 mph71%30.20 "Hg10 mi
7:53 PM49 °FClear.3 mph71%30.19 "Hg10 mi
6:53 PM50 °FClear.No wind66%30.19 "Hg10 mi
5:53 PM50 °FClear.5 mph66%30.18 "Hg10 mi
4:53 PM53 °FSunny.3 mph56%30.19 "Hg10 mi
3:53 PM56 °FSunny.5 mph51%30.19 "Hg10 mi
2:53 PM56 °FSunny.5 mph49%30.20 "Hg10 mi
1:53 PM55 °FSunny.No wind51%30.21 "Hg10 mi
12:53 PM53 °FSunny.No wind55%30.22 "Hg10 mi
11:53 AM51 °FSunny.No wind61%30.27 "Hg10 mi
Weather by CustomWeather, © 2014

See weather overviewHow to use our weather pages